Zurück zum Katalog

CZ-6A DEB

AktivPO
NORAD 60823·DEBRIS·🇨🇳 China

Gestartet Aug 6, 2024 von Taiyuan Satellite Launch Center

Loading…

Nächste Überflüge (nächste 24 Stunden)

TLE

AktuellSource: Space-Track

Epoche: Sep 14, 2026, 07:14 UTC

1 60823U 24140HA  26257.30206535  .00000577  00000-0  43263-3 0  9996
2 60823  89.0249 272.7067 0235169  36.1700 325.5116 13.81035408105122

Verfolge CZ-6A DEB in Echtzeit mit AllMySat

Download on the App Store